Regional Weather Roundup
Issued by NWS New Orleans/Baton Rouge, LA

Home | Current Version | Previous Version | Graphics & Text | Print | Product List | Glossary On
Versions: 1 2 3 4 5 6 7 8 9 10 11 12 13 14 15 16 17 18 19 20 21 22 23 24 25 26 27 28 29 30 31 32 33 34 35 36 37 38 39 40 41 42 43 44 45 46 47 48 49 50
795
ASUS44 KLIX 251401
RWRLIX
NEW ORLEANS REGIONAL WEATHER ROUNDUP
NATIONAL WEATHER SERVICE NEW ORLEANS LA
900 AM CDT SAT OCT 25 2014

NOTE: "FAIR" INDICATES FEW OR NO CLOUDS BELOW 12,000 FEET WITH NO
      SIGNIFICANT WEATHER AND/OR OBSTRUCTIONS TO VISIBILITY.
      SKY/WX - SKY CONDITION AND SIGNIFICANT WEATHER.
      TMP - AIR TEMPERATURE.     DP    - DEWPOINT TEMPERATURE.
      RH  - RELATIVE HUMIDITY.   PRES  - PRESSURE.
      HI  - HEAT INDEX.          WCI   - WIND CHILL INDEX.

*  THESE STATIONS ARE NOT NWS OR FAA STATIONS AND ARE NOT UNDER
   NWS QUALITY CONTROL.

LAZ038-040-048-061>063-065>067-069-251500-
SOUTHEAST LOUISIANA

CITY           SKY/WX    TMP DP  RH WIND       PRES   REMARKS
N.O. AUDUBON     N/A     67  56  66 MISG        N/A
N.O. INTL ARPT MOSUNNY   68  54  60 NE9       30.15R
N.O. LAKEFRONT SUNNY     66  52  60 NE8       30.16R
N.O. DOWNTOWN*   N/A     63  48  59 N3        30.16R
SLIDELL        SUNNY     57  50  77 N6        30.15R
BATON ROUGE    SUNNY     57  50  77 CALM      30.16R
BOOTHVILLE     SUNNY     70  55  59 NE9       30.14R
BELLE CHASSE   MOSUNNY   60  54  80 VRB3      30.15R
BOGALUSA*        N/A     56  49  78 CALM      30.17R
NEW ROADS*       N/A     55  54  94 CALM      30.17R
GONZALES*        N/A     58  53  85 CALM      30.16R
HAMMOND*       NOT AVBL
HOUMA*         SUNNY     59  54  82 CALM      30.15R
PORT FOURCHON* SUNNY     68  57  68 NE9       30.18R

$$

MSZ070-080>082-251500-
SOUTHERN MISSISSIPPI

CITY           SKY/WX    TMP DP  RH WIND       PRES   REMARKS
MCCOMB         SUNNY     62  47  57 N6        30.17R
GULFPORT       SUNNY     60  50  69 N5        30.15R
BILOXI         NOT AVBL
PASCAGOULA     SUNNY     58  51  78 N6        30.14R
STENNIS ARPT*  SUNNY     55  48  76 CALM      30.16R

$$

COASTAL OBSERVATIONS
LAKE AND NEARSHORE STATIONS

STATION/POSITION TIME  TEMP    WIND        PRES    WAVE
                       AIR SEA DIR/SP/G            HT/PER
                 (UTC) (F)     (DEG/KT/KT) (MB)    (FT/S)
PASCAGOULA       1300   57     360/  8/ 10 1019.8
WAVELAND YACHT   1300   59      10/  6/  7 1019.8
GRAND ISLE       1300   67 71   40/  8/ 10 1020.7
SOUTHWEST PASS   1300   72 80              1020.0
NEW CANAL        1300   65 69   40/  7/  8 1021.2
SHELL BEACH      1300   65 66   40/  7/ 10 1020.5

OFFSHORE STATIONS

STATION/POSITION TIME  TEMP    WIND        PRES    WAVE
                       AIR SEA DIR/SP/G            HT/PER
                 (UTC) (F)     (DEG/KT/KT) (MB)    (FT/S)
64 S DAUPHIN ISL 1336   72 78   20/ 14/ 17 1019.8    4/ 5

$$




USA.gov is the U.S. government's official web portal to all federal, state and local government web resources and services.